Opa Locka, FL

2:37 PM EDT on June 28, 2017 (GMT -0400)
Opa Locka

Weather History for KOPF - April, 2013

Change the Weather History Date:

Saturday, April 6, 2013

  Actual Average Record
Temperature  
Mean Temperature 70 °F -  
Max Temperature 82 °F 81 °F 91 °F (2009)
Min Temperature 60 °F 63 °F 47 °F (1987)
Cooling Degree Days 6    
Growing Degree Days 20 (Base 50)    
Moisture  
Dew Point 59 °F    
Average Humidity 72    
Maximum Humidity 93    
Minimum Humidity 48    
Precipitation  
Precipitation 0.00 in - - ()
Sea Level Pressure  
Sea Level Pressure 30.02 in    
Wind  
Wind Speed 11 mph (North)    
Max Wind Speed 16 mph    
Max Gust Speed 23 mph    
Visibility 10 miles    
Events      
Averages and records for this station are not official NWS values.
T = Trace of Precipitation, MM = Missing Value Source: NWS Daily Summary

Daily Weather History Graph

Daily Weather History Graph

Search for Another Location

Airport or City:

Trip Planner

Search our weather history database for the weather conditions in past years. The results will help you decide how hot, cold, wet, or windy it might be!

Date:

Astronomy

Apr. 06, 2013 Rise Set
Actual Time 7:06 AM EDT 7:40 PM EDT
Civil Twilight 6:43 AM EDT 8:03 PM EDT
Nautical Twilight 6:16 AM EDT 8:30 PM EDT
Astronomical Twilight 5:48 AM EDT 8:58 PM EDT
Moon 4:28 AM EDT (4/6) 4:25 PM EDT (4/6)
Length of Visible Light 13h 20m
Length of Day
12h 33m
Waning Crescent, 15% of the Moon is Illuminated
Apr 6
Waning Crescent
Apr 10
New
Apr 18
First Quarter
Apr 25
Full
May 2
Last Quarter

Hourly Weather History & Observations

Time (EDT) Temp. Heat Index Dew Point Humidity Pressure Visibility Wind Dir Wind Speed Gust Speed Precip Events Conditions
12:53 AM 64.9 °F - 60.1 °F 84% 29.96 in 10.0 mi WNW 15.0 mph - N/A   Overcast
1:53 AM 63.0 °F - 59.0 °F 87% 29.95 in 10.0 mi NW 13.8 mph - N/A   Clear
2:53 AM 62.1 °F - 57.9 °F 86% 29.95 in 10.0 mi NW 10.4 mph - N/A   Clear
3:53 AM 61.0 °F - 57.9 °F 90% 29.96 in 10.0 mi NNW 6.9 mph - N/A   Mostly Cloudy
4:13 AM 60.8 °F - 57.2 °F 88% 29.95 in 10.0 mi NNW 9.2 mph - N/A   Overcast
4:28 AM 60.8 °F - 57.2 °F 88% 29.94 in 10.0 mi NNW 8.1 mph - N/A   Overcast
4:53 AM 61.0 °F - 57.9 °F 90% 29.95 in 10.0 mi NNW 6.9 mph - N/A   Scattered Clouds
5:53 AM 61.0 °F - 59.0 °F 93% 29.97 in 10.0 mi NNW 10.4 mph - N/A   Clear
6:45 AM 60.8 °F - 57.2 °F 88% 29.98 in 10.0 mi North 13.8 mph - N/A   Mostly Cloudy
6:53 AM 61.0 °F - 57.9 °F 90% 29.98 in 10.0 mi North 10.4 mph - N/A   Mostly Cloudy
7:53 AM 60.1 °F - 55.9 °F 86% 30.02 in 10.0 mi North 12.7 mph - N/A   Scattered Clouds
8:53 AM 63.0 °F - 57.0 °F 81% 30.04 in 10.0 mi NNW 15.0 mph - N/A   Clear
9:53 AM 66.9 °F - 57.9 °F 73% 30.04 in 10.0 mi NNW 13.8 mph - N/A   Clear
10:53 AM 70.0 °F - 59.0 °F 68% 30.05 in 10.0 mi North 8.1 mph - N/A   Clear
11:53 AM 73.9 °F - 59.0 °F 59% 30.05 in 10.0 mi NNW 8.1 mph - N/A   Clear
12:53 PM 77.0 °F - 59.0 °F 54% 30.05 in 10.0 mi North 5.8 mph - N/A   Scattered Clouds
1:53 PM 79.0 °F - 57.9 °F 48% 30.04 in 10.0 mi East 9.2 mph - N/A   Scattered Clouds
2:53 PM 80.1 °F 80.7 °F 59.0 °F 48% 30.03 in 10.0 mi ENE 13.8 mph 17.3 mph N/A   Partly Cloudy
3:53 PM 81.0 °F 81.7 °F 61.0 °F 50% 30.02 in 10.0 mi East 10.4 mph 16.1 mph N/A   Partly Cloudy
4:53 PM 77.0 °F - 62.1 °F 60% 30.02 in 10.0 mi ENE 12.7 mph 23.0 mph N/A   Mostly Cloudy
5:53 PM 78.1 °F - 61.0 °F 56% 30.03 in 10.0 mi NE 13.8 mph 18.4 mph N/A   Partly Cloudy
6:53 PM 75.0 °F - 60.1 °F 60% 30.04 in 10.0 mi ENE 16.1 mph - N/A   Clear
7:53 PM 73.0 °F - 60.1 °F 64% 30.05 in 10.0 mi NE 11.5 mph - N/A   Clear
8:53 PM 73.0 °F - 59.0 °F 61% 30.06 in 10.0 mi NE 9.2 mph - N/A   Clear
9:53 PM 72.0 °F - 59.0 °F 64% 30.08 in 10.0 mi NE 5.8 mph - N/A   Clear
10:53 PM 71.1 °F - 59.0 °F 66% 30.10 in 10.0 mi NE 3.5 mph - N/A   Clear
11:53 PM 70.0 °F - 60.1 °F 71% 30.11 in 10.0 mi NE 4.6 mph - N/A   Partly Cloudy